Location: El Conde
(10.2895°N, 67.2409°W)
Time: 18:58:03
(UTC+00:00)

Cosmos 2237 Rocket - Pass Details

Date: 19 May 2024
Orbit: 833 x 850 km, 71.0° (Epoch: 12 June)

Event Time Altitude Azimuth Distance (km) Brightness Sun altitude
Rises 23:01:53 0° 188° (S) 3,385 5.2 -4.9°
Reaches altitude 10° 23:04:21 10° 185° (S) 2,453 4.5 -5.4°
Maximum altitude 23:09:54 62° 105° (ESE) 942 2.2 -6.7°
Drops below altitude 10° 23:15:29 10° 25° (NNE) 2,463 4.6 -8.0°
Sets 23:17:57 0° 22° (NNE) 3,399 5.4 -8.5°
